QPF
0.04 0.03 0.03 0.03 0.03 0.02 0.02 0.03 0.03 0.02 0.01 0.02 0.03 0.02 0.02 0.05 0.09 0.09 0.08 0.08 0.06 0.05 0.05 0.05 0.06 0.07 0.08 0.08 0.08 0.07 0.06 0.04 0.04 0.03 0.03 0.04 0.05 0.05 0.05 0.05 0.05 0.05 0.05
0.04 0.03 0.02 0.02 0.04 0.04 0.04 0.03 0.03 0.02 0.01 0.02 0.03 0.02 0.02 0.03 0.07 0.13 0.11 0.08 0.06 0.06 0.06 0.05 0.06 0.06 0.05 0.05 0.06 0.06 0.05 0.03 0.04 0.04 0.04 0.05 0.04 0.04 0.05 0.06 0.05 0.05 0.04
0.04 0.03 0.02 0.02 0.04 0.04 0.02 0.01 0.02 0.02 0.02 0.01 0.01 0.02 0.03 0.03 0.03 0.05 0.07 0.05 0.05 0.04 0.04 0.04 0.03 0.05 0.04 0.04 0.06 0.08 0.06 0.04 0.03 0.04 0.04 0.05 0.05 0.05 0.05 0.05 0.04 0.04 0.03
0.07 0.04 0.03 0.03 0.05 0.04 0.02 0.02 0.02 0.03 0.03 0.02 0.01 0.01 0.02 0.04 0.04 0.04 0.03 0.03 0.03 0.03 0.03 0.04 0.03 0.03 0.04 0.05 0.06 0.05 0.05 0.04 0.04 0.04 0.04 0.04 0.04 0.05 0.05 0.04 0.04 0.04 0.04
0.14 0.07 0.04 0.05 0.10 0.09 0.06 0.03 0.02 0.04 0.03 0.02 0.02 0.03 0.03 0.04 0.05 0.05 0.04 0.03 0.03 0.03 0.02 0.04 0.04 0.03 0.04 0.07 0.06 0.05 0.03 0.03 0.03 0.03 0.03 0.03 0.03 0.03 0.04 0.04 0.06 0.05 0.04
0.15 0.12 0.08 0.06 0.07 0.07 0.05 0.03 0.03 0.03 0.02 0.02 0.02 0.05 0.05 0.06 0.07 0.06 0.04 0.03 0.03 0.04 0.05 0.06 0.04 0.03 0.03 0.05 0.04 0.03 0.02 0.02 0.02 0.02 0.03 0.03 0.03 0.02 0.04 0.05 0.07 0.08 0.06
0.14 0.13 0.10 0.07 0.06 0.05 0.04 0.03 0.02 0.02 0.01 0.01 0.01 0.03 0.04 0.03 0.03 0.06 0.09 0.07 0.05 0.04 0.04 0.03 0.02 0.02 0.02 0.02 0.01 0.02 0.02 0.02 0.02 0.03 0.03 0.03 0.02 0.02 0.02 0.05 0.06 0.06 0.04
0.08 0.08 0.08 0.07 0.06 0.05 0.03 0.02 0.01 0.01 0.01 0.01 0.01 0.01 0.01 0.01 0.02 0.03 0.05 0.04 0.03 0.01 0.01 0.01 0.01 0.01 0.01 0.01 0.01 0.02 0.01 0.01 0.02 0.04 0.05 0.06 0.04 0.02 0.02 0.04 0.04 0.05 0.04
0.10 0.07 0.05 0.04 0.05 0.04 0.02 0.02 0.02 0.01 0.01 0.01 0.01 0.01 0.02 0.02 0.03 0.03 0.02 0.02 0.02 0.01 0.00 0.00 0.00 0.00 0.00 0.00 0.01 0.02 0.02 0.02 0.02 0.02 0.03 0.05 0.05 0.02 0.02 0.02 0.02 0.03 0.03
0.16 0.11 0.06 0.05 0.05 0.03 0.02 0.03 0.02 0.01 0.01 0.01 0.02 0.02 0.03 0.03 0.03 0.01 0.00 0.00 0.00 0.00 0.00 0.00 0.00 0.00 0.00 0.00 0.01 0.02 0.02 0.03 0.02 0.02 0.03 0.04 0.05 0.04 0.02 0.02 0.02 0.03 0.03
0.14 0.14 0.11 0.08 0.06 0.04 0.03 0.03 0.02 0.03 0.03 0.03 0.02 0.03 0.02 0.02 0.01 0.01 0.00 0.00 0.00 0.00 0.00 0.00 0.00 0.00 0.00 0.01 0.01 0.01 0.01 0.02 0.02 0.02 0.02 0.03 0.03 0.05 0.03 0.02 0.03 0.03 0.02
0.08 0.06 0.06 0.06 0.05 0.04 0.03 0.02 0.02 0.02 0.03 0.03 0.02 0.02 0.02 0.01 0.01 0.01 0.00 0.00 0.00 0.00 0.00 0.00 0.00 0.00 0.00 0.01 0.01 0.01 0.01 0.02 0.02 0.02 0.01 0.02 0.03 0.04 0.02 0.02 0.02 0.02 0.02
0.10 0.08 0.08 0.07 0.06 0.05 0.03 0.01 0.01 0.01 0.02 0.02 0.02 0.01 0.02 0.02 0.02 0.02 0.01 0.01 0.01 0.00 0.00 0.00 0.00 0.01 0.01 0.01 0.02 0.01 0.02 0.02 0.02 0.01 0.01 0.02 0.02 0.02 0.01 0.01 0.01 0.01 0.01
0.05 0.03 0.04 0.04 0.03 0.03 0.02 0.02 0.02 0.02 0.02 0.02 0.03 0.05 0.06 0.06 0.05 0.04 0.03 0.02 0.01 0.00 0.00 0.00 0.01 0.01 0.01 0.01 0.02 0.02 0.02 0.02 0.01 0.01 0.01 0.01 0.02 0.01 0.01 0.01 0.01 0.01 0.02
0.03 0.02 0.02 0.02 0.02 0.01 0.01 0.01 0.02 0.01 0.01 0.01 0.03 0.05 0.06 0.07 0.07 0.07 0.06 0.04 0.01 0.00 0.00 0.00 0.01 0.01 0.01 0.02 0.03 0.02 0.01 0.01 0.01 0.01 0.01 0.01 0.01 0.01 0.01 0.01 0.01 0.01 0.01
0.04 0.03 0.02 0.02 0.02 0.01 0.01 0.01 0.02 0.02 0.01 0.01 0.01 0.01 0.01 0.01 0.01 0.01 0.01 0.01 0.00 0.00 0.00 0.00 0.00 0.01 0.01 0.02 0.04 0.02 0.02 0.02 0.02 0.02 0.02 0.01 0.01 0.01 0.02 0.02 0.02 0.02 0.01
0.04 0.04 0.03 0.03 0.02 0.01 0.01 0.01 0.01 0.02 0.02 0.02 0.01 0.01 0.01 0.00 0.00 0.00 0.00 0.01 0.00 0.00 0.00 0.00 0.00 0.00 0.01 0.01 0.03 0.02 0.02 0.02 0.02 0.02 0.02 0.01 0.01 0.01 0.01 0.01 0.01 0.01 0.02
0.05 0.06 0.05 0.03 0.02 0.01 0.01 0.01 0.01 0.01 0.01 0.00 0.00 0.00 0.00 0.00 0.00 0.00 0.00 0.01 0.00 0.00 0.00 0.00 0.00 0.00 0.01 0.01 0.02 0.02 0.01 0.01 0.01 0.01 0.01 0.02 0.02 0.01 0.01 0.01 0.01 0.01 0.01
0.04 0.04 0.03 0.02 0.01 0.01 0.02 0.02 0.02 0.01 0.01 0.00 0.00 0.01 0.00 0.00 0.00 0.00 0.00 0.00 0.01 0.01 0.01 0.01 0.01 0.00 0.01 0.01 0.01 0.02 0.02 0.01 0.01 0.00 0.00 0.01 0.02 0.01 0.01 0.01 0.01 0.01 0.01
0.05 0.04 0.03 0.01 0.01 0.02 0.02 0.02 0.02 0.01 0.01 0.01 0.01 0.01 0.00 0.01 0.00 0.00 0.00 0.00 0.00 0.01 0.01 0.02 0.02 0.01 0.01 0.01 0.01 0.02 0.02 0.02 0.01 0.00 0.00 0.01 0.01 0.01 0.01 0.01 0.01 0.01 0.01
0.04 0.04 0.04 0.04 0.03 0.03 0.03 0.03 0.02 0.02 0.01 0.01 0.01 0.01 0.00 0.00 0.00 0.00 0.00 0.00 0.00 0.01 0.01 0.01 0.01 0.02 0.01 0.01 0.01 0.02 0.02 0.01 0.01 0.01 0.00 0.01 0.01 0.01 0.01 0.01 0.01 0.02 0.02
0.02 0.03 0.04 0.04 0.04 0.04 0.03 0.03 0.02 0.02 0.02 0.02 0.02 0.01 0.01 0.01 0.01 0.01 0.00 0.00 0.00 0.00 0.00 0.01 0.01 0.02 0.01 0.01 0.01 0.01 0.02 0.02 0.01 0.01 0.01 0.01 0.01 0.01 0.01 0.01 0.02 0.02 0.02
0.01 0.01 0.01 0.02 0.03 0.04 0.04 0.04 0.03 0.03 0.02 0.02 0.02 0.01 0.01 0.01 0.00 0.00 0.00 0.00 0.00 0.00 0.00 0.01 0.01 0.01 0.01 0.01 0.01 0.01 0.01 0.02 0.01 0.01 0.02 0.01 0.01 0.01 0.01 0.01 0.02 0.01 0.01
0.01 0.01 0.01 0.01 0.02 0.02 0.02 0.02 0.02 0.02 0.02 0.01 0.01 0.01 0.00 0.00 0.00 0.00 0.00 0.00 0.00 0.00 0.00 0.00 0.00 0.01 0.01 0.01 0.01 0.01 0.01 0.01 0.01 0.01 0.01 0.01 0.01 0.01 0.01 0.01 0.01 0.01 0.01
0.01 0.01 0.01 0.01 0.01 0.02 0.02 0.01 0.01 0.01 0.01 0.01 0.01 0.01 0.01 0.00 0.00 0.00 0.00 0.00 0.00 0.00 0.00 0.00 0.00 0.00 0.01 0.01 0.01 0.00 0.00 0.00 0.01 0.01 0.01 0.01 0.00 0.00 0.01 0.01 0.01 0.01 0.01
0.02 0.02 0.02 0.02 0.02 0.02 0.02 0.02 0.01 0.01 0.01 0.01 0.01 0.01 0.01 0.01 0.00 0.00 0.00 0.00 0.00 0.00 0.00 0.00 0.00 0.00 0.00 0.00 0.00 0.00 0.00 0.00 0.00 0.01 0.01 0.01 0.00 0.00 0.00 0.01 0.00 0.00 0.00
MSLP
1018.85 1019.22 1019.54 1019.76 1019.86 1019.85 1019.74 1019.55 1019.33 1019.11 1018.94 1018.84 1018.82 1018.89 1019.01 1019.16 1019.31 1019.43 1019.49 1019.48 1019.40 1019.26 1019.07 1018.87 1018.67 1018.51 1018.40 1018.34 1018.33 1018.37 1018.43 1018.48 1018.51 1018.48 1018.40 1018.27 1018.09 1017.89 1017.71 1017.57 1017.51 1017.54 1017.65
1019.40 1019.83 1020.15 1020.34 1020.39 1020.32 1020.15 1019.92 1019.68 1019.48 1019.34 1019.28 1019.30 1019.39 1019.50 1019.62 1019.72 1019.78 1019.77 1019.72 1019.61 1019.46 1019.28 1019.11 1018.94 1018.79 1018.68 1018.60 1018.56 1018.54 1018.54 1018.55 1018.55 1018.52 1018.45 1018.35 1018.22 1018.07 1017.94 1017.85 1017.83 1017.88 1018.01
1019.98 1020.45 1020.78 1020.95 1020.95 1020.82 1020.59 1020.33 1020.08 1019.88 1019.78 1019.76 1019.81 1019.92 1020.03 1020.12 1020.17 1020.16 1020.10 1020.00 1019.86 1019.70 1019.54 1019.38 1019.23 1019.09 1018.97 1018.86 1018.77 1018.71 1018.65 1018.62 1018.59 1018.55 1018.51 1018.44 1018.36 1018.28 1018.21 1018.18 1018.20 1018.29 1018.45
1020.55 1021.06 1021.40 1021.56 1021.53 1021.35 1021.08 1020.79 1020.52 1020.34 1020.25 1020.26 1020.34 1020.44 1020.55 1020.61 1020.61 1020.56 1020.44 1020.30 1020.13 1019.96 1019.80 1019.65 1019.51 1019.37 1019.24 1019.10 1018.97 1018.86 1018.76 1018.68 1018.63 1018.59 1018.56 1018.53 1018.50 1018.48 1018.47 1018.50 1018.57 1018.70 1018.89
1021.08 1021.62 1021.98 1022.14 1022.10 1021.89 1021.60 1021.28 1021.00 1020.82 1020.74 1020.76 1020.84 1020.95 1021.03 1021.06 1021.02 1020.92 1020.76 1020.57 1020.38 1020.20 1020.04 1019.89 1019.76 1019.62 1019.47 1019.31 1019.15 1018.99 1018.85 1018.74 1018.66 1018.61 1018.59 1018.59 1018.60 1018.63 1018.67 1018.75 1018.87 1019.04 1019.26
1021.52 1022.09 1022.48 1022.65 1022.61 1022.40 1022.10 1021.77 1021.49 1021.30 1021.22 1021.23 1021.31 1021.40 1021.46 1021.46 1021.38 1021.24 1021.04 1020.82 1020.61 1020.41 1020.25 1020.10 1019.96 1019.82 1019.66 1019.48 1019.29 1019.10 1018.92 1018.78 1018.68 1018.61 1018.58 1018.59 1018.62 1018.68 1018.76 1018.87 1019.03 1019.24 1019.48
1021.82 1022.42 1022.84 1023.04 1023.03 1022.84 1022.55 1022.22 1021.94 1021.75 1021.66 1021.67 1021.72 1021.79 1021.82 1021.79 1021.68 1021.51 1021.28 1021.04 1020.81 1020.61 1020.44 1020.29 1020.15 1020.00 1019.83 1019.63 1019.42 1019.20 1018.98 1018.80 1018.66 1018.57 1018.52 1018.51 1018.54 1018.60 1018.70 1018.83 1019.02 1019.25 1019.53
1021.96 1022.58 1023.04 1023.28 1023.31 1023.17 1022.90 1022.60 1022.34 1022.15 1022.05 1022.04 1022.08 1022.12 1022.13 1022.07 1021.94 1021.75 1021.51 1021.26 1021.02 1020.81 1020.63 1020.47 1020.33 1020.17 1019.98 1019.77 1019.53 1019.28 1019.03 1018.80 1018.62 1018.48 1018.39 1018.35 1018.35 1018.39 1018.48 1018.62 1018.82 1019.08 1019.39
1021.95 1022.59 1023.09 1023.38 1023.46 1023.36 1023.14 1022.88 1022.64 1022.46 1022.36 1022.34 1022.36 1022.39 1022.38 1022.31 1022.17 1021.97 1021.73 1021.48 1021.24 1021.03 1020.85 1020.69 1020.53 1020.36 1020.15 1019.92 1019.65 1019.36 1019.07 1018.80 1018.56 1018.36 1018.22 1018.12 1018.07 1018.08 1018.14 1018.27 1018.48 1018.75 1019.09
1021.83 1022.49 1023.01 1023.33 1023.46 1023.42 1023.25 1023.04 1022.83 1022.68 1022.59 1022.57 1022.59 1022.61 1022.60 1022.53 1022.39 1022.20 1021.97 1021.73 1021.50 1021.29 1021.11 1020.94 1020.77 1020.57 1020.35 1020.08 1019.78 1019.46 1019.12 1018.80 1018.50 1018.24 1018.03 1017.86 1017.76 1017.71 1017.74 1017.85 1018.04 1018.33 1018.70
1021.67 1022.32 1022.84 1023.19 1023.35 1023.35 1023.24 1023.07 1022.91 1022.79 1022.74 1022.73 1022.76 1022.79 1022.78 1022.72 1022.61 1022.44 1022.23 1022.01 1021.80 1021.59 1021.41 1021.23 1021.04 1020.83 1020.57 1020.28 1019.94 1019.57 1019.20 1018.82 1018.46 1018.14 1017.86 1017.63 1017.46 1017.36 1017.35 1017.43 1017.61 1017.89 1018.28
1021.53 1022.15 1022.64 1022.98 1023.15 1023.18 1023.12 1023.00 1022.89 1022.82 1022.80 1022.82 1022.87 1022.92 1022.93 1022.90 1022.81 1022.67 1022.49 1022.29 1022.10 1021.91 1021.72 1021.53 1021.33 1021.09 1020.81 1020.49 1020.12 1019.72 1019.29 1018.88 1018.47 1018.09 1017.76 1017.47 1017.25 1017.10 1017.04 1017.09 1017.24 1017.52 1017.91
1021.45 1022.00 1022.44 1022.74 1022.91 1022.95 1022.91 1022.84 1022.78 1022.76 1022.78 1022.84 1022.92 1023.00 1023.04 1023.03 1022.97 1022.86 1022.71 1022.54 1022.36 1022.19 1022.00 1021.81 1021.59 1021.33 1021.03 1020.68 1020.29 1019.87 1019.42 1018.97 1018.53 1018.11 1017.74 1017.41 1017.14 1016.95 1016.86 1016.87 1017.00 1017.26 1017.64
1021.43 1021.89 1022.25 1022.50 1022.62 1022.66 1022.65 1022.62 1022.61 1022.64 1022.71 1022.81 1022.92 1023.02 1023.08 1023.10 1023.06 1022.97 1022.85 1022.71 1022.55 1022.38 1022.21 1022.01 1021.78 1021.52 1021.20 1020.84 1020.44 1020.00 1019.54 1019.08 1018.62 1018.19 1017.79 1017.44 1017.15 1016.93 1016.81 1016.79 1016.89 1017.12 1017.47
1021.44 1021.81 1022.08 1022.24 1022.32 1022.35 1022.35 1022.36 1022.39 1022.47 1022.58 1022.72 1022.85 1022.97 1023.04 1023.08 1023.05 1022.99 1022.88 1022.76 1022.62 1022.46 1022.29 1022.10 1021.88 1021.61 1021.30 1020.94 1020.54 1020.10 1019.65 1019.19 1018.74 1018.30 1017.90 1017.54 1017.24 1017.01 1016.86 1016.81 1016.88 1017.07 1017.39
1021.47 1021.72 1021.89 1021.98 1022.01 1022.02 1022.04 1022.08 1022.15 1022.27 1022.41 1022.57 1022.72 1022.84 1022.92 1022.95 1022.94 1022.88 1022.79 1022.67 1022.55 1022.41 1022.25 1022.07 1021.85 1021.60 1021.30 1020.95 1020.57 1020.15 1019.71 1019.27 1018.83 1018.41 1018.02 1017.67 1017.36 1017.12 1016.96 1016.89 1016.93 1017.09 1017.36
1021.47 1021.62 1021.69 1021.71 1021.71 1021.71 1021.73 1021.80 1021.91 1022.05 1022.22 1022.39 1022.54 1022.65 1022.72 1022.74 1022.71 1022.65 1022.56 1022.46 1022.35 1022.22 1022.09 1021.92 1021.73 1021.49 1021.21 1020.89 1020.53 1020.14 1019.72 1019.31 1018.89 1018.49 1018.12 1017.78 1017.48 1017.24 1017.07 1016.99 1017.00 1017.12 1017.36
1021.43 1021.50 1021.50 1021.47 1021.44 1021.43 1021.47 1021.55 1021.68 1021.85 1022.02 1022.18 1022.31 1022.40 1022.45 1022.44 1022.40 1022.33 1022.24 1022.15 1022.06 1021.96 1021.84 1021.71 1021.54 1021.33 1021.08 1020.78 1020.45 1020.08 1019.70 1019.30 1018.91 1018.53 1018.17 1017.84 1017.55 1017.32 1017.15 1017.06 1017.06 1017.16 1017.36
1021.38 1021.38 1021.33 1021.27 1021.23 1021.23 1021.27 1021.37 1021.51 1021.67 1021.83 1021.97 1022.07 1022.13 1022.14 1022.11 1022.05 1021.97 1021.89 1021.82 1021.74 1021.67 1021.58 1021.48 1021.34 1021.16 1020.93 1020.67 1020.36 1020.02 1019.65 1019.28 1018.91 1018.54 1018.20 1017.88 1017.60 1017.36 1017.20 1017.10 1017.10 1017.18 1017.36
1021.35 1021.31 1021.24 1021.17 1021.12 1021.12 1021.18 1021.28 1021.41 1021.55 1021.68 1021.78 1021.84 1021.86 1021.83 1021.78 1021.71 1021.64 1021.57 1021.51 1021.47 1021.42 1021.37 1021.30 1021.19 1021.03 1020.84 1020.59 1020.30 1019.98 1019.64 1019.28 1018.92 1018.56 1018.23 1017.91 1017.64 1017.41 1017.24 1017.15 1017.14 1017.23 1017.40
1021.37 1021.32 1021.25 1021.18 1021.14 1021.14 1021.19 1021.27 1021.38 1021.48 1021.57 1021.63 1021.64 1021.62 1021.57 1021.50 1021.43 1021.37 1021.32 1021.30 1021.28 1021.27 1021.25 1021.20 1021.12 1020.99 1020.81 1020.59 1020.32 1020.01 1019.68 1019.34 1018.99 1018.64 1018.31 1018.00 1017.73 1017.50 1017.34 1017.25 1017.24 1017.32 1017.48
1021.48 1021.44 1021.37 1021.31 1021.27 1021.27 1021.30 1021.35 1021.42 1021.48 1021.51 1021.52 1021.50 1021.44 1021.38 1021.31 1021.25 1021.20 1021.19 1021.19 1021.21 1021.23 1021.23 1021.21 1021.14 1021.03 1020.87 1020.65 1020.40 1020.12 1019.80 1019.47 1019.14 1018.80 1018.48 1018.17 1017.90 1017.68 1017.51 1017.42 1017.41 1017.48 1017.64
1021.66 1021.64 1021.59 1021.54 1021.50 1021.48 1021.48 1021.49 1021.51 1021.51 1021.50 1021.46 1021.40 1021.33 1021.26 1021.20 1021.16 1021.15 1021.16 1021.20 1021.24 1021.28 1021.30 1021.28 1021.23 1021.12 1020.97 1020.77 1020.53 1020.26 1019.97 1019.67 1019.36 1019.04 1018.73 1018.44 1018.18 1017.95 1017.78 1017.68 1017.66 1017.72 1017.86
1021.89 1021.89 1021.86 1021.81 1021.76 1021.71 1021.68 1021.65 1021.61 1021.56 1021.50 1021.43 1021.35 1021.28 1021.21 1021.17 1021.16 1021.17 1021.21 1021.27 1021.33 1021.37 1021.39 1021.37 1021.31 1021.20 1021.05 1020.86 1020.65 1020.41 1020.16 1019.89 1019.61 1019.33 1019.05 1018.78 1018.53 1018.31 1018.13 1018.02 1017.97 1018.01 1018.12
1022.12 1022.13 1022.11 1022.06 1021.99 1021.92 1021.85 1021.78 1021.69 1021.61 1021.51 1021.42 1021.33 1021.26 1021.21 1021.19 1021.20 1021.23 1021.29 1021.35 1021.40 1021.43 1021.43 1021.39 1021.31 1021.19 1021.04 1020.87 1020.68 1020.48 1020.27 1020.06 1019.84 1019.60 1019.37 1019.13 1018.90 1018.68 1018.50 1018.36 1018.29 1018.29 1018.36
1022.28 1022.31 1022.28 1022.22 1022.15 1022.05 1021.95 1021.84 1021.73 1021.61 1021.50 1021.40 1021.31 1021.25 1021.21 1021.21 1021.23 1021.27 1021.32 1021.36 1021.39 1021.38 1021.35 1021.27 1021.16 1021.03 1020.87 1020.72 1020.56 1020.40 1020.25 1020.10 1019.95 1019.78 1019.60 1019.40 1019.19 1018.99 1018.80 1018.65 1018.54 1018.50 1018.52
Thickness
5714 5713 5712 5710 5706 5703 5700 5697 5693 5691 5690 5687 5683 5679 5675 5673 5672 5671 5670 5670 5669 5670 5670 5670 5670 5670 5669 5670 5671 5670 5669 5669 5670 5669 5668 5670 5671 5671 5672 5673 5673 5674 5674
5707 5705 5704 5702 5699 5696 5692 5690 5687 5685 5683 5680 5677 5673 5669 5665 5664 5662 5661 5661 5660 5661 5661 5660 5661 5662 5662 5662 5663 5662 5661 5662 5663 5661 5659 5658 5659 5661 5663 5664 5664 5665 5666
5702 5699 5696 5694 5691 5688 5685 5682 5679 5677 5675 5673 5670 5666 5662 5657 5654 5653 5652 5651 5652 5652 5652 5652 5652 5653 5653 5653 5654 5654 5654 5653 5655 5656 5654 5650 5649 5650 5651 5653 5654 5656 5656
5697 5693 5690 5686 5683 5680 5678 5674 5672 5669 5667 5665 5662 5657 5652 5647 5644 5643 5642 5642 5643 5643 5643 5644 5644 5644 5645 5645 5646 5646 5646 5646 5645 5647 5649 5648 5648 5644 5642 5643 5644 5646 5646
5691 5686 5683 5680 5676 5673 5670 5667 5664 5660 5658 5656 5653 5648 5644 5640 5637 5636 5635 5634 5634 5634 5634 5634 5635 5635 5636 5636 5637 5638 5638 5639 5639 5639 5640 5640 5641 5641 5638 5635 5635 5635 5636
5685 5678 5674 5671 5667 5665 5662 5659 5656 5652 5649 5646 5643 5639 5636 5632 5629 5627 5626 5625 5624 5624 5625 5625 5626 5626 5627 5627 5628 5629 5630 5631 5632 5632 5632 5632 5632 5632 5632 5630 5629 5628 5627
5680 5673 5667 5663 5660 5657 5654 5650 5647 5643 5640 5637 5633 5630 5627 5624 5621 5619 5617 5616 5614 5614 5615 5616 5617 5617 5618 5619 5620 5621 5622 5623 5624 5625 5625 5626 5626 5627 5627 5625 5622 5621 5620
5673 5667 5662 5657 5653 5649 5646 5643 5639 5635 5632 5628 5624 5621 5618 5615 5612 5610 5609 5608 5607 5607 5607 5608 5609 5609 5611 5612 5612 5613 5614 5615 5616 5617 5618 5619 5620 5621 5621 5620 5618 5615 5613
5666 5660 5655 5650 5646 5642 5638 5635 5631 5627 5623 5619 5615 5612 5610 5607 5605 5603 5601 5600 5599 5599 5600 5600 5600 5601 5602 5603 5604 5605 5606 5607 5608 5609 5611 5612 5613 5615 5615 5616 5615 5612 5609
5658 5655 5649 5644 5640 5636 5631 5627 5623 5619 5614 5610 5607 5604 5601 5599 5597 5595 5593 5593 5592 5592 5591 5591 5592 5592 5593 5595 5596 5597 5598 5599 5600 5602 5603 5604 5605 5607 5608 5608 5608 5608 5605
5652 5647 5642 5637 5632 5627 5623 5619 5615 5610 5605 5602 5598 5595 5593 5591 5590 5588 5586 5585 5584 5583 5583 5583 5583 5583 5584 5586 5587 5589 5590 5592 5593 5594 5596 5597 5598 5599 5600 5601 5601 5601 5600
5646 5640 5635 5630 5624 5620 5615 5611 5607 5602 5598 5595 5591 5588 5585 5583 5582 5580 5579 5578 5576 5575 5575 5574 5574 5575 5576 5577 5579 5580 5582 5583 5585 5587 5589 5589 5591 5592 5593 5593 5594 5593 5593
5638 5633 5627 5623 5618 5613 5609 5604 5600 5595 5592 5588 5584 5581 5579 5576 5574 5573 5572 5570 5568 5567 5566 5566 5566 5566 5568 5569 5571 5572 5574 5575 5577 5579 5580 5582 5583 5584 5585 5586 5586 5586 5586
5632 5626 5621 5616 5611 5607 5603 5598 5593 5590 5586 5582 5578 5575 5572 5571 5569 5567 5565 5563 5562 5560 5559 5559 5559 5559 5560 5562 5564 5566 5567 5568 5570 5572 5573 5575 5576 5577 5578 5579 5579 5579 5578
5626 5621 5616 5611 5605 5601 5597 5592 5588 5584 5581 5577 5573 5570 5568 5566 5564 5561 5559 5557 5556 5555 5554 5553 5552 5553 5554 5556 5558 5559 5560 5561 5563 5565 5567 5569 5571 5572 5573 5574 5573 5573 5572
5623 5618 5612 5607 5602 5597 5593 5588 5584 5580 5576 5573 5569 5567 5564 5561 5559 5557 5554 5552 5551 5549 5549 5547 5547 5548 5549 5551 5553 5555 5555 5556 5557 5559 5561 5563 5565 5567 5568 5568 5569 5569 5568
5620 5615 5610 5605 5600 5595 5590 5584 5580 5576 5572 5569 5566 5563 5560 5557 5555 5553 5550 5547 5546 5545 5544 5543 5543 5543 5545 5547 5549 5551 5551 5551 5552 5553 5555 5558 5559 5561 5561 5562 5563 5564 5564
5617 5611 5607 5602 5597 5592 5586 5581 5577 5573 5569 5566 5563 5561 5558 5555 5552 5549 5546 5544 5542 5541 5540 5540 5540 5540 5542 5544 5545 5547 5547 5547 5548 5549 5550 5551 5553 5555 5556 5557 5558 5558 5559
5614 5608 5604 5599 5594 5588 5583 5578 5573 5569 5567 5564 5562 5559 5556 5553 5549 5546 5544 5542 5541 5539 5539 5539 5538 5538 5539 5541 5542 5543 5543 5543 5543 5545 5546 5547 5549 5551 5553 5553 5553 5553 5554
5610 5605 5600 5595 5589 5584 5580 5575 5570 5567 5564 5563 5561 5558 5555 5552 5549 5546 5544 5542 5541 5539 5538 5538 5537 5537 5538 5539 5540 5540 5540 5539 5539 5540 5542 5544 5546 5548 5549 5549 5549 5549 5550
5606 5602 5597 5591 5586 5582 5577 5572 5568 5565 5564 5562 5559 5557 5554 5551 5549 5546 5544 5542 5540 5539 5538 5537 5537 5537 5537 5538 5538 5538 5538 5537 5537 5538 5539 5541 5543 5545 5546 5547 5547 5548 5549
5603 5598 5592 5587 5583 5580 5576 5571 5567 5566 5564 5561 5558 5556 5553 5552 5550 5547 5544 5543 5540 5538 5537 5536 5536 5536 5537 5538 5538 5538 5538 5538 5537 5537 5538 5540 5542 5544 5545 5546 5547 5548 5549
5600 5596 5590 5585 5581 5578 5575 5570 5568 5566 5563 5560 5557 5555 5553 5551 5549 5547 5544 5542 5540 5538 5537 5535 5534 5535 5537 5538 5539 5539 5539 5539 5538 5538 5540 5541 5543 5545 5546 5548 5549 5549 5549
5597 5592 5588 5583 5579 5577 5574 5571 5569 5566 5563 5559 5556 5554 5552 5550 5549 5547 5546 5543 5541 5539 5539 5538 5537 5537 5537 5538 5538 5538 5538 5539 5539 5539 5541 5543 5545 5546 5548 5549 5550 5551 5551
5594 5590 5586 5582 5579 5577 5574 5571 5569 5566 5562 5559 5556 5554 5553 5551 5549 5548 5546 5546 5545 5544 5542 5542 5541 5539 5539 5541 5541 5539 5539 5539 5539 5540 5541 5542 5544 5545 5547 5550 5551 5553 5553
5593 5589 5585 5582 5579 5576 5574 5572 5570 5567 5563 5559 5557 5555 5554 5552 5550 5549 5549 5550 5549 5549 5549 5548 5546 5546 5546 5545 5544 5543 5543 5543 5542 5541 5541 5542 5544 5546 5548 5550 5553 5555 5556